Regional Weather Roundup
Issued by NWS Newport/Morehead, NC

Current Version | Previous Version | Text Only | Print | Product List | Glossary Off
Versions: 1 2 3 4 5 6 7 8 9 10 11 12 13 14 15 16 17 18 19 20 21 22 23 24 25 26 27 28 29 30 31 32 33 34 35 36 37 38 39 40 41 42 43 44 45 46 47 48 49 50
634 ASUS42 KMHX 080112 RWRMHX WEATHER ROUNDUP FOR EASTERN NORTH CAROLINA NATIONAL WEATHER SERVICE NEWPORT/MOREHEAD CITY NC 800 PM EST WED DEC 07 2016 NOTE: "FAIR" INDICATES FEW OR NO CLOUDS BELOW 12,000 FEET WITH NO SIGNIFICANT WEATHER AND/OR OBSTRUCTIONS TO VISIBILITY NCZ015>017-031-032-045>047-102-103-080200- NORTH COAST CITY SKY/WX TMP DP RH WIND PRES REMARKS EDENTON CLOUDY 50 46 86 CALM 30.10F ELIZABETH CITY CLEAR 46 42 86 E5 30.10S KITTY HAWK CLEAR 49 45 85 CALM 30.09R MANTEO CLEAR 48 43 82 NE7 30.11R $$ NCZ045>047-081-094-103-104-080200- CENTRAL COAST CITY SKY/WX TMP DP RH WIND PRES REMARKS FRISCO NOT AVBL $$ NCZ095-097-098-100-101-080200- SOUTHERN COAST CITY SKY/WX TMP DP RH WIND PRES REMARKS BEAUFORT PTCLDY 49 45 86 E3 30.10R CEDAR ISLAND NOT AVBL JACKSONVILLE CLEAR 47 47 100 CALM 30.09R PINEY ISLAND CLEAR N/A N/A N/A NE6 30.09R WILMINGTON CLEAR 48 48 100 CALM 30.09R $$ NCZ011>013-027>030-043-044-078>080-089-090>093-098-080200- COASTAL PLAIN CITY SKY/WX TMP DP RH WIND PRES REMARKS AHOSKIE PTCLDY 40 40 99 CALM 30.09F CLINTON CLEAR 47 46 99 CALM 30.09R ELIZABETHTOWN CLEAR 48 47 97 CALM 30.08S GOLDSBORO CLEAR 45 45 100 CALM 30.06F GREENVILLE CLEAR 43 43 100 CALM 30.10F HAVELOCK CLEAR 49 45 86 CALM 30.10R KENANSVILLE NOT AVBL KINSTON CLEAR 43 41 93 CALM 30.09F NEW BERN CLEAR 44 42 93 CALM 30.10R RICHLANDS CLEAR 43 43 100 CALM 30.10R ROCKY MOUNT CLEAR 41 41 100 CALM 30.08F WASHINGTON N/A 42 41 96 CALM 30.09F WHITEVILLE CLEAR 48 47 93 CALM 30.08S $$ AMZ130-135-150-152-154-156-158-170-250-252-270-ANZ085-086-088-633-658-670-080200- MARINE OBSERVATIONS STATION/POSITION TIME TEMP WIND PRES WAVE SWELL AIR SEA DIR/SP/G HT/PER HT/PER (UTC) (F) (DEG/KT/KT) (MB) (FT/S) (FT/S) CHESAPEAKE LIGHT NOT AVBL 64 E VA BEACH 2350 53 59 350/ 12/ 16 1017.7 8/12 7/12 DUCK 0048 51 54 10/ 11/ 14 1018.6 2 E DUCK NOT AVBL OREGON INLET 0048 360/ 9/ 13 N/A 13E OREGON INLT NOT AVBL HATTERAS CG 0048 52 60 30/ 8/ 12 1018.7 DIAMOND BUOY 2350 58 77 10/ 12/ 16 1018.5 7/11 7/11 CAPE LOOKOUT 0000 52 20/ 7/ 7 1018.3 BEAUFORT LAB 0048 51 55 60/ 3/ 4 1018.0 30 SE NEW RVR IN 0008 57 70 50/ 4/ 8 1018.7 30 SE NEW RVR IN NOT AVBL 27 SE WRIGHTSVLE 0008 59 68 90/ 4/ 8 1018.2 5 SE WRIGHTSVLE 0008 55 61 130/ 4/ 8 1017.8 225 S CAPE HAT 2350 70 74 330/ 10/ 14 1017.4 6/ 7 5/ 7 41 SE CHARLESTON 2350 63 74 290/ 4/ 6 1017.9 2/ 7 2/ 7 $$

USA.gov is the U.S. government's official web portal to all federal, state and local government web resources and services.